[[{"header":{"parameterUnit":"m.s-1","parameterCategory":1,"la1":30.2991,"la2":30.254,"lo1":-89.0895,"lo2":-89.0444,"dy":0.0017,"dx":0.0017,"nx":28,"ny":28,"refTime":"2024-10-17T09:00:00:Z","depth":0,"parameterNumber":2,"parameterNumberName":"U-component_of_WINDS"},"data":[0,0,0,0,0,0,0,0,0,0,0,0,0,0,0,0,0,0,0,0,0,0,0,0,0,0,0,0,0,0,0,0,0,0,0,0,0,0,0,0,0,0,0,0,0,0,0,0,0,0,0,0,0,0,0,0,0,0,-2.3899,-2.3899,0,-2.3908,-2.3909,-2.3909,-2.3837,-2.3835,-2.3833,-2.3831,-2.384,-2.3842,-2.3844,0,0,0,0,0,0,0,0,0,0,0,0,0,-2.3818,-2.382,-2.3899,-2.3899,-2.3899,-2.3908,-2.3909,-2.3909,-2.3837,-2.3835,-2.3832,-2.383,-2.3839,-2.3842,-2.3844,0,0,0,0,0,0,0,0,0,0,0,0,0,-2.3843,-2.382,-2.3899,-2.3865,-2.3862,-2.3908,-2.3909,-2.3909,-2.3838,-2.3835,-2.3832,-2.3829,-2.3838,-2.3841,-2.3845,-2.3924,0,0,-2.3854,-2.3856,0,0,0,0,0,0,0,0,-2.3841,-2.3846,-2.387,-2.3867,-2.3864,-2.3868,-2.3883,-2.3914,-2.3839,-2.3847,-2.3831,-2.3828,-2.3852,-2.3854,-2.3862,-2.3925,-2.3925,-2.3854,-2.3856,-2.3858,-2.3859,0,0,0,0,0,0,0,-2.384,-2.3845,-2.3903,-2.387,-2.3867,-2.3848,-2.3849,-2.3889,-2.3866,-2.3846,-2.3841,-2.3843,-2.385,-2.3859,-2.3862,-2.3925,-2.3854,-2.3857,-2.3859,-2.386,-2.4053,-2.4056,0,0,0,0,0,0,-2.3843,-2.3844,-2.3902,-2.3903,-2.3845,-2.3852,-2.3853,-2.387,-2.3865,-2.3862,-2.3846,-2.384,-2.3855,-2.3858,-2.3862,-2.3954,-2.3858,-2.3861,-2.3862,-2.4049,-2.4053,-2.4057,0,0,0,0,0,0,-2.3841,-2.3849,-2.3902,-2.3872,-2.3878,-2.3857,-2.3877,-2.3872,-2.3881,-2.3865,-2.3861,-2.386,-2.3853,-2.3857,-2.3909,-2.3953,-2.3862,-2.3865,-2.4046,-2.4051,-2.4055,-2.414,0,0,0,0,0,0,-2.3839,-2.3849,-2.3879,-2.3873,-2.3879,-2.395,-2.388,-2.3874,-2.3887,-2.3879,-2.3877,-2.3874,-2.3851,-2.3905,-2.3912,-2.3956,-2.3867,-2.4041,-2.4048,-2.4053,-2.4133,-2.4147,-2.4159,0,0,0,0,0,-2.3837,-2.3903,-2.3881,-2.3888,-2.3917,-2.3953,-2.3956,-2.3929,-2.3891,-2.3921,-2.391,-2.3874,-2.3947,-2.3911,-2.3918,-2.3964,-2.4039,-2.4046,-2.4053,-2.4127,-2.4145,-2.4159,0,0,0,0,0,0,-2.3914,-2.3901,-2.3877,-2.3943,-2.395,-2.3941,-2.3978,-2.3948,-2.3965,-2.3957,-2.3922,-2.3922,-2.398,-2.3977,-2.3936,-2.404,-2.3986,-2.3995,-2.404,-2.4056,-2.4069,-2.4069,-2.387,0,0,0,0,0,-2.3939,-2.3969,-2.3956,-2.4016,-2.402,-2.3999,-2.4013,-2.3992,-2.3996,-2.3999,-2.3992,-2.3998,-2.4022,-2.4039,-2.4061,-2.4132,-2.4131,-2.4168,-2.4181,-2.4191,-2.42,-2.4237,-2.4253,-2.408,-2.408,-2.408,0,0,-2.399,-2.3987,-2.4008,-2.4031,-2.4034,-2.4065,-2.4001,-2.4038,-2.4061,-2.4004,-2.4053,-2.4048,-2.4052,-2.4114,-2.4141,-2.4114,-2.4247,-2.4201,-2.4209,-2.4212,-2.4246,-2.4263,-2.4277,-2.4085,-2.4084,-2.4084,0,0,-2.41,-2.4101,-2.4151,-2.4154,-2.4159,-2.4144,-2.4156,-2.4151,-2.4146,-2.4194,-2.4152,-2.4178,-2.4221,-2.4226,-2.4234,-2.4345,-2.4312,-2.4353,-2.4421,-2.4458,-2.4472,-2.4483,-2.4523,-2.4538,-2.4361,-2.4362,-2.4362,0,-2.4164,-2.421,-2.418,-2.4219,-2.423,-2.418,-2.423,-2.4235,-2.4246,-2.4254,-2.4223,-2.4276,-2.4275,-2.4337,-2.4365,-2.4373,-2.4385,-2.4353,-2.4472,-2.4484,-2.4494,-2.4532,-2.4547,-2.4367,-2.4366,-2.4366,-2.4365,0,-2.4288,-2.4321,-2.436,-2.4372,-2.4387,-2.4432,-2.4408,-2.4427,-2.4404,-2.4392,-2.4441,-2.4439,-2.4459,-2.4472,-2.445,-2.4531,-2.4514,-2.4478,-2.4423,-2.4516,-2.4551,-2.4565,-2.4374,-2.4372,-2.4371,-2.4369,0,0,-2.4447,-2.4442,-2.4457,-2.4461,-2.4462,-2.4487,-2.4528,-2.4548,-2.4565,-2.4574,-2.4608,-2.4645,-2.4612,-2.4621,-2.4599,-2.4631,-2.4719,-2.4591,-2.4591,-2.4615,-2.4808,-2.4836,-2.4853,-2.4697,-2.47,-2.4702,-2.4808,0,-2.4554,-2.4626,-2.4599,-2.4672,-2.4702,-2.4655,-2.4691,-2.4695,-2.4685,-2.4708,-2.4697,-2.4724,-2.4678,-2.4683,-2.4713,-2.4702,-2.4758,-2.4694,-2.4728,-2.473,-2.4729,-2.4871,-2.4899,-2.5,-2.4821,-2.4824,-2.4825,0,-2.4689,-2.4704,-2.478,-2.4775,-2.4787,-2.482,-2.4835,-2.4858,-2.4862,-2.4852,-2.4863,-2.4833,-2.4873,-2.4818,-2.4872,-2.483,-2.4842,-2.4839,-2.4842,-2.4844,-2.4783,-2.4877,-2.5031,-2.5047,-2.4846,-2.4845,-2.4843,0,-2.4798,-2.4837,-2.4887,-2.4893,-2.4888,-2.4913,-2.4912,-2.4912,-2.4926,-2.4939,-2.4947,-2.4965,-2.4975,-2.499,-2.4966,-2.4928,-2.5024,-2.4967,-2.5017,-2.5017,-2.5039,-2.5038,-2.5198,-2.5047,-2.5047,-2.5046,-2.5046,0,-2.4921,-2.4969,-2.4936,-2.4967,-2.5019,-2.4988,-2.5041,-2.5035,-2.5036,-2.5064,-2.5024,-2.5052,-2.5018,-2.5043,-2.5024,-2.5072,-2.5077,-2.507,-2.5064,-2.5074,-2.5075,-2.5081,-2.5074,-2.505,-2.505,-2.5049,-2.5048,0,-2.5051,-2.5031,-2.5083,-2.5074,-2.5073,-2.5112,-2.5105,-2.5133,-2.512,-2.5156,-2.5163,-2.5143,-2.5169,-2.5147,-2.5172,-2.516,-2.5223,-2.5208,-2.5223,-2.5218,-2.527,-2.5265,-2.544,-2.5461,-2.5296,-2.5298,-2.5299,0,-2.5131,-2.5167,-2.5162,-2.5179,-2.5181,-2.5208,-2.5221,-2.5191,-2.5207,-2.5213,-2.524,-2.5264,-2.5281,-2.5325,-2.5312,-2.5332,-2.5316,-2.5376,-2.5319,-2.5327,-2.5317,-2.5316,-2.5319,-2.5388,-2.539,-2.5392,-2.5393,0,-2.5275,-2.5263,-2.5284,-2.5302,-2.5319,-2.5331,-2.534,-2.5356,-2.5325,-2.5344,-2.5371,-2.5384,-2.541,-2.5434,-2.5449,-2.5447,-2.5416,-2.5411,-2.5423,-2.5433,-2.5441,-2.5437,-2.5254,-2.5407,-2.5406,-2.5405,-2.5404,-2.5403,-2.5383,-2.5412,-2.5414,-2.5438,-2.5442,-2.5451,-2.5477,-2.5467,-2.5489,-2.5508,-2.5489,-2.5521,-2.5523,-2.554,-2.5542,-2.5567,-2.5542,-2.556,-2.5565,-2.557,-2.5578,-2.5436,-2.557,-2.5569,-2.5569,-2.5568,-2.5568,0,-2.5524,-2.5523,-2.5546,-2.5559,-2.5579,-2.5546,-2.5555,-2.5573,-2.5602,-2.5606,-2.5624,-2.5654,-2.5677,-2.5666,-2.5685,-2.5707,-2.5693,-2.5713,-2.5711,-2.5711,-2.5599,-2.5586,-2.5724,-2.5724,-2.5724,-2.5724,-2.5724,-2.5724,-2.5601,-2.5649,-2.5637,-2.5687,-2.5684,-2.5716,-2.5723,-2.5732,-2.5735,-2.5771,-2.5789,-2.5782,-2.578,-2.5799,-2.5818,-2.5814,-2.5823,-2.5849,-2.584,-2.5735,-2.5719,-2.5705,-2.5693,-2.5851,-2.5851,-2.595,-2.5951,-2.5952]},{"header":{"parameterUnit":"m.s-1","parameterCategory":1,"la1":30.2991,"la2":30.254,"lo1":-89.0895,"lo2":-89.0444,"dy":0.0017,"dx":0.0017,"nx":28,"ny":28,"refTime":"2024-10-17T09:00:00:Z","depth":0,"parameterNumber":3,"parameterNumberName":"V-component_of_WINDS"},"data":[0,0,0,0,0,0,0,0,0,0,0,0,0,0,0,0,0,0,0,0,0,0,0,0,0,0,0,0,0,0,0,0,0,0,0,0,0,0,0,0,0,0,0,0,0,0,0,0,0,0,0,0,0,0,0,0,0,0,-1.8927,-1.8928,0,-1.9011,-1.9012,-1.9013,-1.9029,-1.9029,-1.9028,-1.9028,-1.911,-1.9113,-1.9116,0,0,0,0,0,0,0,0,0,0,0,0,0,-1.8777,-1.878,-1.8927,-1.8928,-1.8929,-1.9011,-1.9012,-1.9013,-1.903,-1.9029,-1.9028,-1.9027,-1.9109,-1.9113,-1.9116,0,0,0,0,0,0,0,0,0,0,0,0,0,-1.885,-1.8781,-1.8927,-1.8947,-1.895,-1.9011,-1.9012,-1.9014,-1.903,-1.9029,-1.9028,-1.9027,-1.9108,-1.9112,-1.9117,-1.9162,0,0,-1.913,-1.9131,0,0,0,0,0,0,0,0,-1.8846,-1.8855,-1.8943,-1.8946,-1.8949,-1.9009,-1.899,-1.9063,-1.903,-1.8999,-1.9028,-1.9026,-1.9077,-1.9084,-1.9102,-1.9166,-1.917,-1.913,-1.9132,-1.9134,-1.9135,0,0,0,0,0,0,0,-1.8841,-1.8852,-1.896,-1.8945,-1.8948,-1.8951,-1.896,-1.9004,-1.9043,-1.9002,-1.9003,-1.9013,-1.9079,-1.9098,-1.9104,-1.9171,-1.913,-1.9134,-1.9136,-1.9138,-1.9276,-1.9277,0,0,0,0,0,0,-1.8832,-1.8847,-1.8958,-1.8963,-1.8894,-1.8955,-1.8965,-1.8991,-1.9042,-1.9049,-1.9014,-1.9014,-1.9091,-1.9099,-1.9107,-1.9163,-1.9134,-1.9138,-1.9141,-1.9275,-1.9276,-1.9277,0,0,0,0,0,0,-1.8829,-1.8842,-1.8954,-1.8906,-1.892,-1.8958,-1.8987,-1.8993,-1.9012,-1.9051,-1.9058,-1.9027,-1.909,-1.9101,-1.9148,-1.9166,-1.914,-1.9144,-1.9273,-1.9275,-1.9277,-1.9276,0,0,0,0,0,0,-1.8825,-1.8841,-1.886,-1.8906,-1.8923,-1.8996,-1.8988,-1.8995,-1.902,-1.902,-1.9065,-1.9071,-1.909,-1.9142,-1.9152,-1.9171,-1.9147,-1.9272,-1.9274,-1.9276,-1.9275,-1.9278,-1.928,0,0,0,0,0,-1.8819,-1.8856,-1.886,-1.8874,-1.8947,-1.8997,-1.9006,-1.9028,-1.9021,-1.9039,-1.9065,-1.907,-1.9162,-1.9147,-1.9159,-1.9179,-1.9271,-1.9273,-1.9276,-1.9274,-1.9277,-1.928,0,0,0,0,0,0,-1.8809,-1.8862,-1.8868,-1.8921,-1.8954,-1.8999,-1.9023,-1.9031,-1.9067,-1.9066,-1.9091,-1.91,-1.9146,-1.9167,-1.9149,-1.9225,-1.9216,-1.9221,-1.921,-1.9214,-1.9216,-1.921,-1.9151,0,0,0,0,0,-1.8814,-1.8851,-1.8894,-1.8936,-1.8953,-1.8985,-1.9008,-1.9022,-1.9057,-1.9071,-1.91,-1.9133,-1.9169,-1.9193,-1.9228,-1.9278,-1.9287,-1.9298,-1.93,-1.9302,-1.9306,-1.9333,-1.9338,-1.9286,-1.9285,-1.9285,0,0,-1.8822,-1.8855,-1.8877,-1.8935,-1.8963,-1.8999,-1.8997,-1.9036,-1.9063,-1.9077,-1.9123,-1.9145,-1.9184,-1.9232,-1.9255,-1.9251,-1.9323,-1.9306,-1.9307,-1.931,-1.9336,-1.9341,-1.9346,-1.9287,-1.9287,-1.9287,0,0,-1.8856,-1.8886,-1.8924,-1.8951,-1.8994,-1.9015,-1.9024,-1.9068,-1.9083,-1.9131,-1.9141,-1.9173,-1.9236,-1.9263,-1.9284,-1.9328,-1.9334,-1.9338,-1.9352,-1.9378,-1.9382,-1.9386,-1.9401,-1.9406,-1.9342,-1.9342,-1.9342,0,-1.8861,-1.8918,-1.8942,-1.8981,-1.9005,-1.902,-1.9058,-1.9083,-1.9134,-1.915,-1.9146,-1.9224,-1.9251,-1.9306,-1.9316,-1.9333,-1.9344,-1.9334,-1.938,-1.9384,-1.9388,-1.9403,-1.9408,-1.9343,-1.9343,-1.9343,-1.9343,0,-1.8922,-1.8961,-1.8986,-1.9036,-1.9064,-1.9102,-1.913,-1.9155,-1.9166,-1.9187,-1.9234,-1.9267,-1.931,-1.9324,-1.9335,-1.938,-1.9376,-1.9375,-1.9366,-1.9393,-1.9407,-1.9413,-1.9343,-1.9343,-1.9343,-1.9343,0,0,-1.8953,-1.9015,-1.9024,-1.9047,-1.9094,-1.9124,-1.9161,-1.9204,-1.9224,-1.9258,-1.929,-1.9342,-1.9342,-1.9367,-1.9381,-1.9404,-1.9435,-1.94,-1.9402,-1.9405,-1.9486,-1.9486,-1.9492,-1.9439,-1.9441,-1.9442,-1.9482,0,-1.8993,-1.9062,-1.9084,-1.9142,-1.9177,-1.9191,-1.9224,-1.9256,-1.9276,-1.9309,-1.9331,-1.9367,-1.9364,-1.9379,-1.9402,-1.9427,-1.9452,-1.9424,-1.9468,-1.947,-1.9458,-1.9499,-1.95,-1.9536,-1.9488,-1.9489,-1.949,0,-1.9049,-1.9085,-1.9146,-1.9188,-1.9204,-1.9233,-1.9273,-1.9304,-1.934,-1.9353,-1.938,-1.9392,-1.9431,-1.942,-1.9473,-1.9454,-1.9473,-1.9488,-1.9489,-1.9494,-1.9481,-1.9505,-1.9549,-1.9554,-1.9498,-1.9498,-1.9497,0,-1.9065,-1.9128,-1.9173,-1.9192,-1.9242,-1.9262,-1.9284,-1.9318,-1.9342,-1.9377,-1.9392,-1.943,-1.9451,-1.948,-1.9502,-1.9491,-1.9553,-1.9543,-1.9564,-1.9563,-1.9576,-1.9575,-1.9624,-1.9589,-1.9589,-1.9589,-1.9589,0,-1.9107,-1.9143,-1.9181,-1.9208,-1.925,-1.9274,-1.9313,-1.9335,-1.9366,-1.9397,-1.9411,-1.944,-1.9467,-1.9499,-1.9516,-1.9557,-1.9566,-1.9577,-1.9581,-1.9576,-1.9575,-1.9589,-1.9587,-1.959,-1.959,-1.959,-1.9589,0,-1.9132,-1.9158,-1.9208,-1.9251,-1.9263,-1.9291,-1.9328,-1.9354,-1.9375,-1.9414,-1.9424,-1.9457,-1.9495,-1.952,-1.9568,-1.9579,-1.9624,-1.9628,-1.9613,-1.9615,-1.9634,-1.9631,-1.9693,-1.9702,-1.9661,-1.9662,-1.9662,0,-1.9157,-1.9186,-1.9232,-1.9254,-1.9276,-1.9312,-1.9336,-1.936,-1.9385,-1.9427,-1.9448,-1.9487,-1.952,-1.958,-1.9607,-1.9644,-1.9648,-1.9667,-1.9654,-1.9648,-1.9648,-1.9646,-1.9649,-1.967,-1.967,-1.967,-1.967,0,-1.9198,-1.921,-1.9245,-1.9285,-1.9313,-1.9345,-1.9377,-1.9394,-1.9424,-1.945,-1.949,-1.9515,-1.9565,-1.9603,-1.9643,-1.9664,-1.9672,-1.9674,-1.9681,-1.9676,-1.9666,-1.9671,-1.9618,-1.9673,-1.9673,-1.9672,-1.9672,-1.9672,-1.9224,-1.925,-1.9287,-1.9325,-1.9351,-1.9381,-1.9408,-1.9432,-1.9466,-1.9508,-1.952,-1.9561,-1.9595,-1.9649,-1.967,-1.9702,-1.97,-1.9709,-1.9712,-1.9714,-1.9714,-1.9661,-1.9709,-1.9709,-1.9709,-1.9709,-1.9709,0,-1.9266,-1.929,-1.9325,-1.937,-1.9399,-1.9405,-1.944,-1.9464,-1.9501,-1.9532,-1.9564,-1.9609,-1.9646,-1.9676,-1.9714,-1.9733,-1.9738,-1.9743,-1.9741,-1.9746,-1.9714,-1.9704,-1.9738,-1.9738,-1.9738,-1.9738,-1.9738,-1.9738,-1.9292,-1.9336,-1.9351,-1.9408,-1.9431,-1.9472,-1.9492,-1.9519,-1.9544,-1.9593,-1.9625,-1.9644,-1.9674,-1.9715,-1.9749,-1.9756,-1.9769,-1.9773,-1.9782,-1.9751,-1.9748,-1.9745,-1.9736,-1.9776,-1.9776,-1.9811,-1.9811,-1.9811]}]]